EW2129 Weather Reports


time (UTC)temp
C
wind
direction
speed
KPH
gust
KPH
rain 1hr
cm
rain 24hr
cm
rain mn
cm
humidity
%
barometer
mb
20260510044519 9 307 3.2 14.5 0.00 0.81 0.81 74 1006.3
20260510043018 9 348 3.2 12.9 0.00 0.81 0.81 74 1006.1
20260510041517 9 316 4.8 14.5 0.00 0.81 0.81 78 1005.9
20260510040010 9 355 3.2 16.1 0.00 0.81 0.81 88 1005.7
20260510034511 10 264 0.0 3.2 0.00 0.81 0.81 90 1005.4
20260510033009 10 264 0.0 0.0 0.00 0.81 0.81 90 1004.9
20260510031510 10 360 0.0 6.4 0.00 0.81 0.81 90 1004.9
20260510030040 10 198 1.6 4.8 0.00 0.81 0.81 89 1004.8
20260510024540 10 196 0.0 3.2 0.00 0.81 0.81 89 1004.4
20260510023046 10 194 3.2 8.0 0.00 0.81 0.81 89 1004.3
20260510021542 11 197 4.8 8.0 0.00 0.81 0.81 88 1004.3
20260510020036 11 360 3.2 8.0 0.00 0.81 0.81 88 1004.0
20260510014535 11 360 1.6 8.0 0.00 0.81 0.81 88 1003.9
20260510013036 11 192 3.2 8.0 0.00 0.81 0.81 88 1003.5
20260510011536 11 198 4.8 11.3 0.00 0.81 0.81 87 1003.2
20260510010034 11 184 8.0 14.5 0.00 0.81 0.81 87 1003.0
20260510004533 11 168 6.4 9.7 0.00 0.81 0.81 86 1002.8
20260510003001 12 360 3.2 12.9 0.00 0.81 0.81 85 1002.6
20260510001600 12 360 6.4 16.1 0.00 0.81 0.81 85 1002.4
20260510000056 12 360 6.4 11.3 0.00 0.81 0.81 85 1002.0
20260509234655 11 192 8.0 19.3 0.00 0.81 0.81 85 1001.8
20260509233102 11 194 9.7 22.5 0.00 0.81 0.81 84 1001.6
20260509231602 11 199 11.3 19.3 0.10 0.81 0.81 84 1001.4
20260509230054 11 196 12.9 27.4 0.23 0.81 0.81 85 1001.4
20260509224551 11 194 11.3 22.5 0.71 0.81 0.81 88 1001.5
20260509223050 10 360 14.5 29.0 0.81 0.81 0.81 88 1001.6
20260509221554 10 200 19.3 32.2 0.71 0.71 0.71 88 1002.4
20260509220048 11 360 16.1 45.1 0.58 0.58 0.58 86 1003.0
20260509214546 14 360 20.9 40.2 0.05 0.05 0.05 80 1002.3
20260509213059 15 360 9.7 27.4 0.00 0.00 0.00 76 1001.1
20260509211607 15 360 11.3 22.5 0.00 0.00 0.00 75 1000.8
20260509210042 16 159 9.7 30.6 0.00 0.00 0.00 74 1000.5
20260509204556 16 360 14.5 32.2 0.00 0.00 0.00 73 1000.4
20260509203044 16 360 19.3 37.0 0.00 0.00 0.00 72 1000.6
20260509201508 16 180 12.9 41.8 0.00 0.00 0.00 73 1000.6
20260509200008 16 197 20.9 33.8 0.00 0.00 0.00 73 1000.7
20260509194538 16 169 17.7 37.0 0.00 0.00 0.00 73 1001.3
20260509193034 16 360 17.7 30.6 0.00 0.00 0.00 72 1001.8
20260509191531 16 360 20.9 40.2 0.00 0.00 0.00 71 1001.8
20260509190029 17 173 16.1 35.4 0.00 0.00 0.00 68 1001.4
20260509184528 17 360 22.5 35.4 0.00 0.00 0.00 68 1001.5
20260509183026 17 360 14.5 38.6 0.00 0.00 0.00 69 1001.7
20260509181522 17 184 19.3 37.0 0.00 0.00 0.00 69 1001.8
20260509180020 16 192 16.1 35.4 0.00 0.00 0.00 69 1002.0
20260509174518 16 360 17.7 37.0 0.00 0.00 0.00 70 1002.2
20260509173016 16 189 16.1 40.2 0.00 0.00 0.00 70 1002.4
20260509171511 16 196 17.7 40.2 0.00 0.00 0.00 69 1002.8
20260509170011 17 192 19.3 32.2 0.00 0.00 0.00 68 1003.1
20260509164509 16 175 17.7 35.4 0.00 0.00 0.00 69 1003.1
20260509163008 17 198 16.1 38.6 0.00 0.00 0.00 70 1003.0
20260509161501 16 175 16.1 30.6 0.00 0.00 0.00 68 1003.1
20260509160101 16 184 12.9 30.6 0.00 0.00 0.00 69 1003.3
20260509154555 16 184 17.7 32.2 0.00 0.00 0.00 71 1003.7
20260509153053 15 197 11.3 25.7 0.00 0.00 0.00 72 1003.9
20260509151548 15 174 12.9 30.6 0.00 0.00 0.00 73 1004.0
20260509150044 15 360 17.7 29.0 0.00 0.00 0.00 76 1004.0
20260509144543 14 360 9.7 27.4 0.00 0.00 0.00 79 1004.0
20260509143039 13 181 11.3 24.1 0.00 0.00 0.00 81 1004.2
20260509141534 13 179 12.9 25.7 0.00 0.00 0.00 83 1004.2
20260509140031 12 175 14.5 24.1 0.00 0.00 0.00 85 1004.4
20260509134527 12 360 14.5 22.5 0.00 0.00 0.00 86 1004.5
20260509133024 12 360 12.9 22.5 0.00 0.00 0.00 87 1004.6
20260509131528 11 177 11.3 20.9 0.00 0.00 0.00 88 1004.7
20260509130020 11 182 11.3 24.1 0.00 0.00 0.00 89 1004.8
20260509124515 11 198 8.0 17.7 0.00 0.00 0.00 90 1004.9
20260509123011 10 188 9.7 19.3 0.00 0.00 0.00 90 1004.8
20260509121504 10 360 8.0 14.5 0.00 0.00 0.00 91 1004.8
20260509120101 9 155 6.4 11.3 0.00 0.00 0.00 92 1004.9
20260509120009 9 188 6.4 11.3 0.00 0.00 0.00 92 1005.0
20260509114600 9 157 3.2 9.7 0.00 0.00 0.00 92 1005.1
20260509113055 8 153 1.6 9.7 0.00 0.00 0.00 91 1005.0
20260509111547 8 182 3.2 14.5 0.00 0.00 0.00 91 1005.0
20260509110042 8 180 8.0 16.1 0.00 0.00 0.00 91 1004.6
20260509104539 8 146 6.4 12.9 0.00 0.08 0.00 90 1004.7
20260509103036 8 161 4.8 16.1 0.00 0.08 0.00 90 1004.7
20260509101528 8 173 6.4 12.9 0.00 0.08 0.00 89 1004.9
20260509100026 8 179 6.4 12.9 0.00 0.08 0.00 88 1004.9
20260509094523 8 189 8.0 14.5 0.00 0.08 0.00 88 1005.1
20260509093025 8 360 6.4 14.5 0.00 0.08 0.00 88 1005.0
20260509091526 8 157 8.0 14.5 0.00 0.08 0.00 87 1005.0
20260509090014 8 201 9.7 17.7 0.00 0.08 0.00 86 1005.3
20260509084518 8 178 11.3 19.3 0.00 0.10 0.08 84 1005.6
20260509083010 7 187 6.4 16.1 0.00 0.10 0.08 82 1005.7
20260509081510 7 190 4.8 11.3 0.00 0.10 0.08 80 1005.7
20260509080058 7 360 8.0 16.1 0.00 0.10 0.08 78 1005.7
20260509074539 7 189 6.4 16.1 0.00 0.10 0.08 77 1005.6
20260509073018 7 181 6.4 12.9 0.00 0.10 0.08 74 1005.7
20260509071508 7 182 9.7 14.5 0.00 0.10 0.08 72 1005.7
20260509070036 7 171 8.0 16.1 0.00 0.10 0.08 70 1005.7
20260509064535 7 171 6.4 12.9 0.00 0.10 0.08 68 1005.7
20260509063032 7 139 4.8 12.9 0.00 0.10 0.08 68 1006.0
20260509061527 7 169 4.8 9.7 0.00 0.10 0.08 67 1006.2
20260509060026 7 172 4.8 11.3 0.00 0.10 0.08 67 1006.6
20260509054530 7 165 4.8 14.5 0.00 0.10 0.08 68 1006.8
20260509053018 7 182 6.4 16.1 0.00 0.10 0.08 69 1007.0
20260509051517 7 183 6.4 14.5 0.00 0.10 0.08 70 1007.1
20260509050020 7 194 8.0 14.5 0.00 0.10 0.08 70 1007.2